Vertical_Velocity
2 3 3 2 1 1 1 1 1 0 0 1 1 -0 -1 -1 -1 -0 0 1 1 1 1 1 1 1 0 -0 -0 -0 -0 0 1 2 2 2 2 1 0 -0 -0 -0 -0 0 1 1 1 1 1 1 1 1 0 0 -0 -0 -0 -1 -1 -1 -1 -2 -2 -2 -2 -2 -2 -2 -2 -3 -3 -2 -2 -2 -2 -1 -1 -1 -1 -1 -1 -2 -2 -2 -2 -3
1 2 3 2 2 2 2 2 1 0 -0 -0 -1 -1 -1 -1 -0 -0 0 1 1 1 1 1 1 0 0 -0 0 0 0 1 1 2 2 2 1 0 -1 -1 -1 -0 0 1 1 1 1 1 1 1 1 1 0 -0 -1 -1 -1 -1 -1 -1 -1 -1 -1 -1 -1 -2 -2 -2 -2 -2 -2 -2 -2 -2 -2 -1 -1 -1 -1 -1 -2 -2 -2 -3 -3 -3
0 2 2 2 2 2 3 3 2 0 -1 -2 -3 -3 -2 -1 -1 -1 -0 0 0 0 1 1 1 1 0 0 0 1 1 1 2 2 2 1 0 -1 -1 -1 -0 0 1 1 1 0 0 1 1 2 1 0 -0 -1 -1 -1 -1 -1 -1 -1 -1 -1 -1 -1 -1 -2 -2 -2 -2 -2 -2 -2 -2 -2 -2 -1 -1 -1 -1 -2 -2 -3 -3 -3 -3 -3
-1 0 1 1 1 2 2 2 1 -0 -1 -2 -3 -3 -3 -2 -2 -2 -1 -0 0 0 1 1 1 1 1 1 1 1 2 2 2 2 1 0 -1 -1 -1 -1 0 1 1 0 0 0 1 1 1 1 1 0 -0 -1 -1 -1 -1 -1 -1 -1 -1 -1 -1 -1 -2 -2 -2 -2 -2 -2 -2 -2 -2 -2 -2 -1 -1 -1 -1 -2 -2 -3 -3 -3 -3 -3
-2 -1 0 0 1 1 2 1 0 -0 -1 -1 -2 -2 -3 -3 -3 -2 -1 -0 0 1 1 1 1 1 1 1 1 2 3 3 3 2 1 -0 -1 -1 -1 0 1 1 0 -0 -0 0 1 1 1 1 0 -0 -1 -1 -1 -1 -1 -1 -1 -1 -1 -1 -2 -2 -2 -2 -3 -3 -2 -2 -2 -2 -2 -2 -1 -1 -1 -2 -2 -2 -2 -3 -3 -3 -3 -3
-4 -2 -1 -1 -0 1 1 1 0 -0 -0 -0 -0 -1 -2 -3 -3 -2 -1 -0 0 1 1 1 1 1 1 1 2 3 3 3 2 2 1 0 -0 -0 -0 0 0 0 -0 -0 -0 0 1 0 0 -0 -0 -1 -1 -1 -1 -1 -1 -1 -1 -1 -1 -1 -2 -2 -3 -3 -3 -3 -3 -3 -3 -2 -2 -2 -1 -1 -2 -2 -2 -2 -2 -3 -3 -3 -3 -3
-5 -4 -2 -2 -1 -1 -1 -1 -1 -1 -0 0 0 -0 -2 -3 -3 -2 -1 -0 1 1 1 1 1 2 2 2 3 3 3 3 2 2 1 1 0 0 0 0 0 -0 -0 -0 0 0 -0 -0 -1 -1 -1 -1 -1 -1 -1 -1 -1 -1 -1 -1 -1 -2 -2 -3 -3 -3 -3 -3 -3 -3 -3 -2 -2 -2 -1 -1 -2 -2 -2 -2 -2 -2 -3 -3 -3 -3
-3 -2 -2 -2 -3 -3 -4 -4 -3 -1 -0 1 0 -0 -2 -3 -3 -2 -1 0 1 1 1 2 2 2 2 2 2 3 3 3 2 2 2 1 1 1 1 0 0 0 0 0 -0 -1 -1 -1 -1 -1 -1 -1 -1 -1 -1 -1 -1 -1 -1 -1 -2 -2 -3 -3 -3 -3 -3 -3 -3 -3 -2 -2 -2 -2 -2 -2 -2 -2 -2 -2 -2 -2 -2 -2 -3 -3
1 1 -1 -3 -5 -6 -6 -5 -3 -1 0 1 0 -1 -2 -3 -2 -1 0 1 1 1 2 2 2 2 2 2 2 3 2 2 2 2 2 1 1 1 1 1 1 1 0 0 -0 -1 -2 -2 -2 -2 -1 -1 -1 -1 -1 -1 -1 -1 -1 -1 -2 -2 -3 -4 -4 -3 -3 -3 -3 -2 -2 -2 -2 -2 -2 -2 -2 -2 -2 -2 -2 -2 -2 -2 -3 -3
4 2 -1 -3 -5 -6 -6 -4 -3 -1 0 0 -1 -2 -2 -2 -2 -1 0 0 0 1 2 2 2 2 2 2 2 3 3 2 2 2 2 1 1 1 1 2 1 1 0 -0 -1 -2 -2 -2 -2 -2 -2 -1 -2 -2 -2 -2 -2 -1 -1 -1 -2 -2 -3 -3 -3 -3 -3 -3 -3 -2 -2 -2 -2 -2 -2 -3 -3 -3 -3 -2 -2 -2 -2 -2 -3 -3
3 1 -1 -2 -3 -3 -3 -3 -2 -1 0 -1 -2 -2 -3 -2 -2 -1 -0 -0 0 1 2 2 2 2 2 2 2 2 3 2 2 1 2 2 1 1 2 2 1 1 1 -0 -1 -2 -2 -2 -2 -2 -2 -2 -2 -2 -2 -2 -2 -2 -2 -2 -2 -3 -3 -3 -3 -3 -3 -3 -3 -2 -2 -2 -3 -3 -3 -3 -3 -3 -3 -3 -3 -3 -3 -3 -3 -3
-1 -0 -1 -2 -1 -1 -1 -1 -1 -0 -0 -1 -2 -3 -3 -2 -1 0 0 0 0 1 1 2 2 2 2 2 3 3 3 3 2 2 2 2 2 1 2 1 1 1 1 -0 -1 -2 -2 -2 -2 -2 -2 -2 -2 -3 -3 -3 -2 -2 -2 -2 -3 -3 -3 -3 -3 -3 -3 -3 -3 -3 -3 -3 -3 -3 -3 -3 -3 -3 -3 -3 -3 -3 -3 -3 -3 -3
-2 -1 -1 -0 -0 0 0 1 1 0 -0 -2 -4 -4 -3 -1 1 1 1 1 1 1 1 1 1 1 2 3 4 4 3 3 3 3 3 2 2 2 1 1 1 1 0 0 -1 -1 -2 -1 -2 -2 -2 -2 -3 -3 -3 -3 -3 -3 -3 -3 -3 -3 -3 -3 -3 -3 -3 -3 -3 -3 -3 -3 -3 -3 -3 -3 -3 -3 -3 -3 -3 -3 -3 -3 -3 -3
-0 0 1 1 1 1 2 2 2 1 -1 -2 -3 -3 -1 -0 0 1 0 0 0 1 1 1 0 1 2 3 4 4 4 3 3 3 3 2 2 2 2 1 1 1 0 0 -1 -1 -1 -1 -1 -2 -2 -2 -3 -3 -4 -4 -4 -4 -4 -3 -3 -3 -2 -2 -2 -2 -3 -3 -3 -3 -3 -3 -3 -3 -3 -3 -3 -3 -3 -3 -3 -3 -3 -3 -4 -4
2 2 2 2 2 3 4 4 4 2 0 -1 -1 -1 -1 -1 -1 -1 -1 -1 -1 0 1 0 0 0 1 2 3 4 3 3 3 3 3 3 3 3 3 2 2 1 1 1 0 -1 -1 -1 -1 -1 -2 -2 -3 -4 -5 -5 -5 -4 -4 -3 -3 -2 -2 -2 -2 -2 -3 -3 -3 -3 -3 -4 -4 -4 -3 -3 -3 -3 -3 -2 -2 -3 -3 -4 -4 -4
4 4 3 3 4 5 6 5 5 4 2 0 -0 -1 -1 -2 -2 -2 -1 -1 -0 0 1 0 0 0 0 1 2 3 3 2 2 2 3 3 3 3 3 3 2 1 1 1 0 -0 -1 -1 -1 -1 -1 -2 -3 -5 -6 -5 -5 -4 -4 -3 -2 -2 -2 -2 -2 -2 -3 -3 -3 -3 -4 -4 -4 -4 -4 -3 -3 -3 -3 -2 -3 -3 -3 -4 -4 -4
5 5 4 4 5 5 5 5 5 4 1 0 -0 -0 -1 -2 -2 -1 -0 -0 0 1 1 1 1 0 0 0 1 1 2 2 2 2 3 4 4 3 3 3 3 2 1 0 0 -0 -0 -1 -1 -1 -1 -2 -4 -5 -5 -5 -4 -4 -3 -2 -2 -2 -2 -2 -2 -3 -3 -3 -3 -4 -4 -4 -4 -4 -4 -3 -3 -3 -3 -3 -3 -3 -4 -4 -4 -4
5 4 3 4 4 4 4 4 3 2 1 -0 -0 -0 -0 -1 -2 -2 -2 -1 -0 0 0 1 1 1 0 -0 -0 0 2 4 3 3 2 3 4 3 3 3 3 2 1 0 -0 -0 0 -0 -1 -1 -2 -3 -4 -5 -4 -4 -4 -3 -3 -2 -2 -2 -2 -2 -2 -3 -3 -4 -4 -4 -4 -4 -4 -4 -4 -3 -3 -3 -3 -3 -3 -4 -4 -4 -3 -3
4 4 4 4 3 3 3 2 1 0 -1 -1 -1 -0 -1 -2 -3 -3 -4 -3 -2 -1 0 0 0 -0 -0 -1 -1 -0 3 4 4 3 2 3 3 3 3 3 3 2 0 -0 -0 0 0 -0 -1 -2 -3 -4 -4 -4 -4 -3 -3 -3 -2 -2 -2 -2 -2 -2 -2 -3 -3 -4 -4 -4 -4 -4 -4 -4 -4 -3 -3 -3 -3 -3 -4 -4 -4 -3 -3 -3
3 4 5 4 4 4 4 3 1 -0 -2 -2 -2 -3 -4 -5 -6 -6 -7 -5 -2 -1 0 -1 -3 -4 -4 -4 -3 -1 2 3 3 2 1 2 2 2 2 3 2 1 -0 -0 0 1 1 -0 -2 -3 -4 -4 -4 -3 -3 -3 -3 -2 -2 -2 -2 -2 -2 -2 -3 -3 -3 -4 -4 -4 -4 -4 -4 -3 -3 -3 -3 -3 -4 -4 -4 -3 -3 -3 -3 -3
6 6 5 6 7 6 5 4 4 2 -0 -2 -4 -6 -8 -9 -10 -10 -9 -5 -2 0 1 -2 -4 -6 -7 -6 -4 -1 -0 1 1 1 0 0 0 0 0 1 1 0 -0 -0 0 1 0 -1 -3 -4 -5 -4 -3 -3 -2 -2 -2 -2 -2 -2 -2 -2 -2 -3 -3 -3 -4 -4 -4 -4 -4 -4 -4 -4 -3 -3 -3 -3 -4 -4 -3 -3 -3 -3 -3 -3
9 8 7 7 7 7 7 6 5 4 1 -2 -5 -8 -10 -11 -12 -10 -6 -2 1 2 1 -1 -4 -6 -7 -6 -4 -3 -3 -0 0 0 -1 -1 -1 -1 -1 -0 -0 -0 -1 -0 0 0 -1 -2 -4 -4 -4 -3 -3 -2 -2 -2 -2 -2 -2 -2 -2 -2 -3 -3 -3 -3 -4 -4 -4 -4 -4 -4 -4 -4 -4 -4 -3 -3 -3 -3 -3 -3 -3 -3 -3 -3
9 9 7 6 6 5 5 5 4 3 1 -2 -4 -7 -8 -8 -7 -4 -0 1 3 3 2 -1 -4 -7 -8 -6 -5 -4 -3 -1 -0 0 -0 -0 -1 -1 -2 -1 -0 -1 -1 -0 0 -0 -2 -4 -5 -4 -3 -2 -2 -2 -2 -2 -2 -2 -2 -2 -2 -3 -3 -3 -3 -3 -4 -4 -4 -4 -4 -4 -4 -4 -4 -4 -4 -3 -3 -3 -3 -3 -3 -3 -3 -3
8 8 7 6 5 4 3 2 2 1 -0 -2 -4 -4 -4 -4 -2 -0 1 2 2 1 -1 -6 -8 -9 -7 -6 -4 -2 -1 -0 1 2 2 2 1 0 -0 0 0 0 -1 -0 -0 -1 -4 -5 -5 -4 -2 -2 -2 -2 -2 -2 -2 -2 -2 -2 -3 -3 -3 -3 -3 -3 -4 -4 -4 -4 -4 -4 -4 -4 -4 -4 -3 -3 -3 -2 -3 -3 -3 -4 -4 -4
6 6 6 5 4 3 1 1 0 -1 -2 -3 -3 -2 -2 -1 0 1 2 0 -2 -5 -9 -10 -10 -7 -5 -3 -0 2 2 3 4 6 5 3 2 1 1 1 2 2 0 -1 -2 -3 -5 -4 -4 -3 -2 -2 -2 -2 -2 -2 -2 -2 -2 -3 -3 -3 -3 -3 -3 -3 -4 -4 -4 -4 -4 -4 -4 -4 -4 -4 -3 -3 -2 -3 -3 -3 -4 -4 -5 -5
4 4 4 3 2 1 0 -0 -1 -2 -3 -3 -2 -1 0 1 1 -0 -2 -6 -8 -11 -12 -10 -7 -4 -1 1 4 5 5 5 6 7 5 4 2 2 1 1 2 2 0 -2 -4 -5 -5 -4 -3 -2 -2 -2 -2 -1 -1 -2 -2 -2 -3 -3 -3 -3 -3 -3 -3 -3 -3 -4 -4 -4 -4 -4 -4 -4 -4 -3 -3 -3 -3 -3 -3 -4 -4 -4 -4 -5
2 2 2 1 1 0 -0 -0 -1 -2 -2 -2 -1 -1 -0 -1 -3 -5 -8 -10 -9 -8 -7 -5 -2 0 3 5 7 8 7 7 6 6 5 4 3 2 1 1 2 1 -2 -4 -6 -6 -4 -3 -2 -2 -2 -2 -1 -1 -1 -2 -2 -3 -3 -3 -3 -3 -3 -3 -3 -3 -3 -4 -4 -4 -4 -4 -4 -4 -4 -3 -3 -3 -3 -3 -4 -4 -4 -4 -4 -4
1 1 1 0 -0 -1 -1 -1 -1 -1 -0 -0 -1 -2 -2 -4 -6 -8 -9 -7 -4 -2 -0 1 3 5 6 8 8 8 7 6 4 3 4 4 3 2 2 2 1 -1 -3 -5 -6 -5 -3 -2 -2 -2 -2 -1 -1 -1 -2 -2 -3 -3 -3 -3 -3 -3 -3 -3 -3 -3 -4 -4 -4 -4 -4 -4 -4 -4 -3 -3 -3 -3 -3 -4 -4 -4 -4 -4 -4 -4
0 1 1 -0 -1 -1 -1 -0 0 1 1 1 -1 -2 -4 -4 -5 -5 -4 -1 1 3 4 5 6 8 10 9 8 6 5 3 2 2 4 4 3 2 3 3 0 -2 -5 -5 -5 -3 -2 -2 -1 -1 -1 -1 -1 -2 -2 -2 -3 -3 -3 -2 -2 -2 -2 -3 -3 -4 -4 -4 -4 -4 -4 -4 -4 -4 -3 -3 -3 -3 -4 -4 -4 -4 -5 -4 -4 -4
0 1 1 0 0 0 1 1 1 1 2 1 0 -1 -1 -1 -1 0 2 3 4 5 6 8 9 10 10 7 5 3 2 2 2 3 4 4 3 2 2 1 -1 -4 -5 -4 -3 -2 -2 -1 -1 -0 0 -1 -2 -2 -2 -3 -2 -2 -2 -2 -2 -2 -3 -3 -3 -4 -4 -4 -4 -4 -4 -4 -4 -4 -3 -3 -3 -4 -4 -4 -4 -4 -4 -4 -4 -4
1 2 2 1 2 2 3 3 2 2 1 2 2 3 3 4 5 7 8 7 6 5 6 8 8 8 6 4 3 2 2 4 3 3 5 4 3 1 1 -1 -3 -5 -5 -4 -3 -2 -2 -2 -1 -0 0 -0 -1 -2 -2 -2 -2 -2 -2 -2 -3 -3 -3 -3 -3 -4 -4 -4 -4 -4 -4 -4 -4 -3 -3 -3 -4 -4 -4 -4 -4 -4 -4 -4 -4 -4
1 2 2 2 3 3 4 4 3 2 2 3 5 6 7 9 11 12 11 8 5 5 6 6 5 4 2 2 2 3 4 5 3 2 4 4 2 0 -1 -3 -4 -5 -4 -3 -3 -2 -2 -1 -1 -1 -1 -1 -1 -2 -2 -2 -2 -2 -2 -2 -3 -3 -4 -4 -4 -4 -4 -4 -4 -4 -4 -4 -4 -4 -3 -4 -4 -4 -4 -4 -4 -3 -3 -3 -3 -4
1 2 2 2 2 3 4 4 4 3 3 5 6 8 9 13 13 12 8 5 3 3 5 4 3 2 2 2 2 3 4 5 4 2 3 3 2 -0 -3 -4 -5 -4 -4 -3 -2 -1 -1 -1 -1 -1 -2 -2 -2 -1 -1 -2 -2 -2 -2 -2 -3 -3 -4 -4 -4 -4 -4 -4 -4 -4 -4 -4 -4 -4 -4 -4 -4 -4 -4 -4 -4 -3 -3 -2 -2 -2
1 2 2 2 2 2 3 3 4 4 5 6 7 8 11 12 11 8 5 3 2 2 3 2 2 1 1 2 3 4 5 6 4 2 2 2 1 -2 -4 -5 -5 -4 -3 -2 -1 -1 -0 -0 -0 -1 -1 -2 -2 -2 -1 -1 -2 -3 -3 -3 -3 -3 -4 -4 -4 -4 -4 -4 -4 -4 -4 -3 -3 -3 -3 -4 -4 -4 -4 -4 -4 -3 -3 -2 -1 -1
2 2 2 2 2 2 3 4 4 5 6 6 7 7 9 9 7 5 4 3 2 1 2 1 1 1 1 2 3 4 6 5 3 2 2 1 -0 -3 -4 -5 -5 -4 -3 -2 -1 -0 0 -0 -0 -0 -1 -1 -2 -2 -2 -1 -2 -2 -3 -3 -3 -3 -4 -4 -4 -4 -4 -4 -4 -4 -3 -3 -3 -3 -3 -3 -3 -3 -3 -3 -3 -3 -2 -2 -2 -1
2 2 2 3 3 3 4 5 5 6 6 5 4 2 2 2 3 4 5 4 3 3 2 1 0 0 1 2 3 4 5 4 3 2 2 0 -2 -4 -5 -5 -5 -4 -3 -2 -1 -0 -0 -0 -1 -1 -1 -1 -2 -2 -3 -3 -3 -2 -2 -2 -3 -3 -4 -4 -4 -4 -4 -4 -4 -4 -3 -3 -3 -3 -3 -4 -4 -4 -3 -3 -2 -2 -1 -1 -1 -2
2 2 3 3 4 4 4 4 5 4 4 1 -1 -4 -5 -2 2 5 6 5 4 3 3 1 1 1 2 3 4 4 4 4 3 2 2 -0 -2 -4 -5 -5 -5 -4 -2 -1 -1 -0 -0 -1 -1 -1 -1 -1 -1 -1 -2 -3 -3 -3 -3 -2 -2 -3 -3 -4 -4 -4 -4 -4 -4 -3 -3 -2 -3 -4 -4 -4 -4 -4 -4 -4 -3 -2 -1 -1 -1 -2
3 3 3 3 3 3 3 2 2 1 -0 -2 -5 -6 -6 -1 4 6 6 5 4 3 2 1 1 2 3 3 4 4 4 5 4 3 1 -1 -3 -5 -6 -5 -4 -3 -1 -0 -0 -0 -1 -1 -1 -2 -2 -2 -2 -1 -1 -2 -2 -3 -3 -3 -3 -3 -3 -4 -4 -4 -4 -4 -3 -3 -3 -3 -4 -4 -5 -5 -5 -5 -5 -4 -4 -3 -2 -2 -2 -3
3 3 3 2 2 1 1 1 -0 -2 -3 -4 -5 -5 -2 3 6 7 5 3 2 1 0 1 2 3 4 3 3 4 4 5 4 2 -1 -3 -4 -5 -6 -5 -3 -2 -0 0 0 -0 -1 -1 -1 -1 -2 -2 -2 -2 -2 -2 -2 -2 -3 -3 -3 -4 -4 -4 -4 -4 -4 -3 -3 -3 -3 -4 -4 -5 -5 -4 -4 -4 -3 -3 -3 -3 -3 -3 -4 -5
3 2 1 1 1 1 1 -0 -1 -2 -3 -3 -3 -1 3 6 6 5 3 1 0 -1 -0 1 3 4 4 3 4 4 4 4 2 0 -2 -4 -5 -5 -5 -4 -2 -1 0 0 0 -0 -1 -1 -1 -1 -1 -1 -1 -2 -2 -2 -2 -2 -3 -3 -4 -4 -4 -4 -4 -4 -4 -4 -4 -3 -4 -4 -5 -5 -4 -4 -3 -2 -2 -2 -2 -2 -2 -2 -3 -4
2 1 0 0 1 2 1 -1 -2 -2 -1 -0 1 4 6 6 4 3 1 0 -0 -0 1 2 4 4 4 4 4 4 4 3 0 -2 -4 -4 -5 -5 -4 -3 -1 -0 0 0 0 -0 -1 -1 -1 -1 -1 -1 -1 -2 -2 -2 -2 -3 -3 -4 -4 -4 -4 -4 -4 -3 -3 -4 -4 -4 -4 -5 -4 -4 -4 -3 -2 -2 -1 -1 -1 -1 -1 -2 -2 -2
2 0 -1 -0 0 0 -1 -1 1 3 4 5 6 6 5 4 3 1 1 0 0 1 2 3 4 4 4 4 4 4 3 1 -1 -3 -4 -4 -4 -4 -3 -2 -1 -0 0 0 -0 -1 -1 -1 -1 -1 -1 -2 -2 -2 -2 -3 -3 -3 -3 -4 -4 -4 -5 -5 -4 -4 -3 -3 -4 -4 -5 -4 -4 -3 -2 -2 -2 -2 -1 -1 -1 -1 -2 -2 -2 -2
2 -0 -2 -2 -2 -1 1 6 8 10 9 8 7 6 4 3 2 2 1 1 0 1 2 3 4 5 4 4 4 4 2 -1 -2 -4 -4 -4 -3 -3 -2 -1 -1 0 0 -0 -1 -1 -1 -0 -0 -1 -1 -2 -2 -2 -2 -3 -3 -3 -4 -4 -4 -4 -4 -4 -4 -4 -4 -4 -4 -4 -4 -4 -3 -2 -2 -1 -1 -1 -1 -1 -1 -1 -2 -2 -3 -3
1 -1 -3 -4 -3 -1 4 9 11 11 9 8 7 6 5 4 3 2 1 0 0 2 4 4 4 4 4 5 4 3 0 -2 -3 -3 -3 -3 -3 -2 -2 -1 -0 0 -0 -1 -1 -1 -1 -0 -1 -1 -1 -1 -2 -2 -3 -3 -3 -4 -4 -4 -4 -4 -4 -4 -4 -4 -5 -5 -4 -4 -3 -3 -2 -2 -2 -2 -2 -2 -2 -2 -2 -2 -2 -3 -3 -4
-0 -3 -5 -5 -5 -2 3 7 8 8 8 7 7 6 5 4 2 1 0 1 2 4 6 5 4 4 3 4 3 1 -2 -3 -3 -3 -3 -3 -2 -2 -1 -1 -0 -0 -1 -1 -1 -1 -0 -1 -1 -1 -2 -2 -2 -2 -2 -3 -4 -4 -4 -4 -4 -4 -4 -4 -4 -4 -4 -4 -4 -3 -3 -2 -1 -2 -2 -2 -3 -2 -2 -1 -1 -2 -2 -3 -3 -3
0 -3 -6 -7 -6 -3 1 4 5 5 5 6 5 5 4 2 2 1 2 4 5 6 6 5 4 4 4 3 2 -0 -3 -3 -3 -3 -3 -3 -2 -2 -1 -0 -0 -0 -1 -1 -0 -0 -0 -1 -1 -2 -2 -2 -2 -2 -2 -3 -3 -4 -4 -4 -4 -4 -4 -4 -4 -4 -4 -3 -3 -3 -2 -2 -2 -2 -2 -2 -2 -2 -1 -1 -1 -2 -2 -3 -3 -3
1 -1 -4 -6 -6 -4 -1 2 4 4 3 4 4 3 2 2 2 3 5 6 6 6 6 4 4 4 4 2 0 -2 -3 -3 -3 -3 -3 -2 -2 -2 -1 -0 -0 -0 -0 -0 -0 -0 -0 -1 -1 -2 -2 -2 -2 -2 -3 -3 -3 -3 -4 -4 -4 -4 -4 -4 -4 -4 -3 -3 -2 -2 -2 -2 -3 -3 -2 -2 -2 -1 -1 -1 -2 -2 -3 -3 -3 -3
1 2 -2 -5 -6 -5 -3 0 2 3 3 3 3 3 3 3 4 5 6 6 6 6 5 4 4 3 2 -0 -2 -4 -4 -3 -3 -2 -2 -2 -2 -1 -0 0 0 0 0 0 0 0 -0 -1 -1 -2 -2 -2 -2 -2 -2 -3 -3 -3 -4 -4 -4 -4 -4 -4 -4 -3 -3 -2 -2 -2 -2 -2 -2 -2 -2 -2 -2 -2 -1 -2 -2 -3 -3 -3 -3 -2
-1 -0 -2 -5 -5 -5 -4 -2 0 2 2 3 3 3 4 4 5 6 6 6 6 6 5 5 4 3 1 -2 -4 -5 -4 -3 -3 -3 -2 -2 -1 -1 0 0 0 0 0 1 0 0 -0 -1 -1 -1 -2 -2 -2 -3 -3 -3 -3 -3 -4 -4 -4 -4 -4 -4 -4 -3 -2 -2 -1 -1 -1 -2 -2 -2 -2 -2 -2 -2 -2 -2 -3 -3 -3 -3 -3 -2
-2 -4 -4 -4 -5 -5 -5 -4 -1 0 1 1 2 3 4 5 6 6 6 6 6 6 5 5 4 2 -1 -3 -4 -4 -3 -3 -2 -2 -2 -2 -1 -0 0 0 1 1 1 1 0 -0 -1 -1 -1 -1 -1 -2 -2 -3 -3 -3 -3 -3 -4 -4 -4 -4 -4 -3 -3 -2 -2 -1 -1 -1 -1 -2 -2 -2 -2 -2 -2 -2 -2 -3 -3 -4 -3 -3 -3 -2
-1 -4 -5 -4 -4 -4 -5 -4 -2 -1 -0 -0 1 3 5 6 6 5 5 5 5 5 5 4 2 0 -2 -4 -4 -3 -2 -2 -2 -2 -2 -1 -1 -0 0 1 1 1 1 0 -0 -1 -1 -1 -1 -1 -1 -2 -2 -2 -3 -3 -3 -4 -4 -4 -4 -4 -3 -3 -2 -1 -1 -0 -1 -1 -2 -2 -3 -2 -2 -2 -2 -2 -3 -3 -3 -4 -3 -3 -3 -2
Height
3019 3019 3020 3021 3023 3024 3025 3027 3028 3029 3030 3031 3031 3031 3032 3033 3033 3034 3035 3036 3037 3038 3038 3039 3039 3039 3040 3040 3041 3041 3042 3043 3043 3044 3044 3045 3045 3045 3045 3045 3045 3045 3044 3044 3044 3044 3044 3044 3044 3043 3043 3042 3041 3040 3039 3038 3037 3035 3034 3033 3031 3029 3027 3025 3024 3021 3019 3017 3015 3013 3011 3009 3007 3005 3002 3000 2997 2994 2991 2989 2985 2982 2979 2976 2973 2970
3017 3018 3019 3020 3021 3022 3023 3025 3026 3027 3028 3029 3029 3030 3030 3031 3032 3033 3034 3034 3035 3036 3036 3037 3037 3038 3038 3039 3039 3040 3041 3042 3042 3043 3043 3043 3043 3043 3043 3043 3043 3043 3043 3043 3043 3043 3042 3042 3042 3041 3041 3040 3039 3039 3038 3036 3035 3034 3032 3030 3029 3027 3025 3024 3021 3019 3017 3015 3013 3011 3009 3007 3005 3003 3000 2998 2995 2992 2989 2986 2983 2980 2977 2974 2970 2968
3015 3016 3017 3018 3019 3020 3021 3023 3024 3025 3026 3027 3028 3028 3029 3030 3031 3031 3032 3033 3033 3034 3034 3035 3035 3036 3037 3037 3038 3039 3039 3040 3041 3041 3042 3042 3042 3041 3041 3041 3041 3041 3041 3041 3041 3041 3041 3040 3040 3040 3039 3039 3038 3037 3035 3034 3033 3031 3030 3028 3027 3025 3023 3021 3019 3018 3015 3014 3012 3010 3008 3005 3003 3001 2998 2995 2993 2989 2987 2984 2980 2977 2974 2971 2969 2965
3013 3014 3015 3016 3017 3018 3019 3020 3021 3023 3024 3025 3026 3026 3027 3028 3029 3030 3030 3031 3031 3032 3033 3033 3034 3034 3035 3036 3037 3038 3039 3039 3040 3040 3040 3040 3040 3040 3040 3040 3040 3040 3040 3040 3039 3039 3039 3039 3039 3038 3038 3037 3036 3035 3034 3032 3031 3029 3028 3026 3024 3023 3021 3019 3017 3016 3014 3012 3010 3008 3006 3004 3001 2999 2996 2993 2990 2987 2984 2981 2978 2975 2972 2969 2966 2964
3011 3012 3013 3014 3015 3016 3017 3018 3019 3020 3022 3023 3024 3024 3026 3027 3027 3028 3029 3029 3029 3030 3031 3031 3032 3033 3034 3034 3035 3036 3037 3038 3038 3038 3038 3038 3038 3038 3038 3038 3038 3038 3038 3038 3038 3038 3038 3037 3037 3036 3036 3035 3034 3033 3031 3030 3029 3027 3026 3024 3022 3021 3019 3017 3015 3014 3012 3010 3008 3006 3004 3001 2999 2996 2994 2991 2988 2985 2982 2979 2976 2973 2970 2967 2964 2962
3009 3010 3010 3011 3012 3013 3014 3015 3017 3018 3019 3021 3022 3023 3024 3025 3025 3026 3027 3027 3028 3029 3029 3030 3031 3031 3032 3033 3034 3035 3035 3036 3036 3036 3036 3036 3036 3036 3036 3036 3036 3036 3036 3036 3036 3036 3036 3035 3035 3034 3034 3033 3032 3031 3029 3028 3027 3025 3024 3022 3020 3019 3017 3015 3014 3012 3010 3008 3006 3004 3002 2999 2997 2994 2991 2988 2985 2982 2979 2977 2974 2971 2968 2965 2963 2960
3007 3008 3008 3009 3009 3010 3012 3013 3014 3016 3017 3019 3020 3021 3022 3023 3024 3024 3025 3026 3026 3027 3028 3029 3029 3030 3031 3032 3033 3033 3034 3034 3034 3034 3034 3034 3034 3034 3034 3034 3034 3034 3035 3035 3035 3034 3034 3034 3033 3033 3032 3031 3030 3029 3027 3026 3024 3023 3021 3020 3018 3017 3015 3014 3012 3010 3008 3006 3004 3002 2999 2997 2994 2992 2989 2986 2983 2980 2977 2974 2972 2969 2966 2964 2961 2958
3004 3005 3005 3006 3007 3008 3009 3011 3012 3014 3015 3017 3018 3019 3019 3020 3022 3023 3023 3024 3024 3025 3026 3027 3028 3029 3029 3030 3031 3031 3032 3032 3032 3032 3033 3033 3033 3033 3033 3033 3033 3033 3033 3033 3033 3033 3033 3032 3031 3031 3030 3029 3028 3027 3025 3024 3022 3021 3019 3018 3016 3015 3013 3012 3010 3009 3007 3004 3002 3000 2997 2995 2992 2989 2986 2984 2981 2978 2975 2973 2970 2967 2964 2962 2959 2957
3001 3002 3003 3004 3004 3005 3007 3009 3010 3012 3013 3014 3015 3016 3017 3018 3019 3020 3021 3022 3023 3024 3024 3025 3026 3027 3028 3029 3029 3030 3030 3030 3030 3030 3031 3031 3031 3030 3030 3031 3031 3031 3032 3032 3032 3031 3031 3030 3029 3029 3028 3027 3026 3024 3023 3022 3020 3019 3017 3016 3014 3013 3012 3010 3009 3007 3005 3003 3000 2998 2995 2992 2990 2987 2984 2982 2979 2976 2974 2971 2968 2965 2963 2960 2958 2955
2999 2999 3000 3001 3002 3003 3004 3006 3008 3009 3011 3012 3013 3014 3015 3016 3017 3018 3019 3020 3021 3022 3023 3024 3025 3026 3026 3027 3028 3028 3028 3029 3029 3029 3029 3029 3029 3029 3029 3029 3029 3030 3030 3030 3030 3029 3029 3029 3028 3027 3026 3025 3024 3023 3021 3020 3018 3017 3015 3014 3013 3011 3010 3009 3007 3005 3003 3001 2998 2996 2993 2990 2988 2985 2982 2980 2977 2974 2972 2969 2966 2964 2961 2959 2956 2954
2996 2997 2998 2999 3000 3001 3003 3004 3005 3007 3008 3009 3010 3011 3013 3014 3015 3016 3017 3018 3019 3020 3021 3022 3023 3024 3025 3025 3026 3026 3026 3027 3027 3027 3027 3027 3027 3027 3027 3028 3028 3028 3029 3028 3028 3028 3027 3027 3026 3025 3024 3023 3022 3021 3019 3018 3016 3015 3014 3013 3011 3010 3009 3007 3005 3003 3001 2999 2996 2994 2991 2988 2986 2983 2980 2978 2975 2973 2970 2967 2964 2962 2960 2957 2955 2953
2994 2995 2996 2997 2998 2999 3000 3002 3003 3004 3005 3006 3007 3009 3010 3012 3013 3014 3015 3016 3017 3018 3019 3020 3022 3023 3023 3024 3024 3024 3025 3025 3025 3026 3026 3025 3025 3025 3026 3026 3026 3027 3027 3027 3026 3026 3025 3025 3024 3023 3022 3021 3020 3019 3018 3016 3015 3014 3012 3011 3010 3009 3007 3005 3004 3001 2999 2997 2994 2992 2989 2986 2984 2981 2979 2976 2974 2971 2968 2965 2963 2961 2958 2956 2954 2951
2993 2993 2994 2995 2996 2997 2998 2999 3000 3001 3002 3003 3004 3006 3008 3010 3011 3012 3013 3014 3015 3016 3017 3019 3020 3021 3022 3022 3023 3023 3024 3024 3024 3024 3024 3024 3024 3024 3024 3024 3025 3025 3025 3025 3024 3024 3024 3023 3022 3021 3020 3019 3018 3017 3016 3014 3013 3012 3011 3009 3008 3007 3005 3004 3002 2999 2997 2995 2992 2990 2987 2985 2982 2979 2977 2974 2972 2969 2966 2964 2962 2959 2957 2954 2952 2950
2991 2991 2992 2993 2994 2994 2995 2996 2997 2998 2999 3000 3002 3004 3006 3007 3009 3010 3011 3012 3013 3014 3016 3017 3018 3019 3020 3021 3021 3022 3022 3022 3022 3022 3022 3022 3022 3022 3023 3023 3023 3023 3023 3023 3023 3022 3022 3021 3020 3019 3018 3017 3016 3015 3014 3013 3012 3010 3009 3008 3007 3005 3004 3002 3000 2998 2995 2993 2990 2988 2985 2983 2980 2978 2975 2973 2970 2968 2965 2963 2960 2958 2956 2954 2951 2949
2989 2989 2989 2990 2991 2992 2993 2994 2994 2995 2997 2998 3000 3001 3003 3004 3006 3007 3009 3010 3011 3013 3014 3016 3017 3018 3019 3019 3020 3020 3020 3020 3021 3021 3021 3021 3021 3021 3021 3021 3021 3021 3021 3021 3021 3020 3020 3019 3018 3017 3016 3015 3014 3013 3012 3011 3010 3009 3008 3007 3005 3004 3002 3000 2998 2996 2993 2991 2989 2986 2984 2981 2979 2976 2974 2971 2969 2966 2964 2961 2959 2957 2955 2953 2950 2948
2986 2986 2987 2988 2989 2989 2990 2991 2992 2993 2994 2996 2997 2999 3000 3002 3003 3005 3007 3008 3010 3011 3013 3014 3015 3016 3017 3018 3018 3018 3019 3019 3019 3019 3019 3019 3019 3019 3019 3019 3019 3019 3019 3019 3019 3019 3018 3017 3016 3015 3014 3013 3013 3012 3011 3010 3009 3008 3006 3005 3004 3002 3000 2998 2996 2994 2992 2989 2987 2984 2982 2980 2977 2975 2972 2970 2967 2965 2962 2960 2958 2956 2954 2952 2949 2947
2984 2984 2984 2985 2986 2987 2988 2989 2990 2991 2992 2993 2994 2996 2998 2999 3001 3003 3004 3006 3008 3010 3012 3013 3014 3015 3015 3016 3016 3017 3017 3017 3018 3018 3018 3018 3018 3018 3018 3018 3018 3018 3018 3018 3017 3017 3016 3015 3014 3014 3013 3012 3011 3010 3009 3009 3007 3006 3005 3004 3002 3000 2999 2996 2994 2992 2990 2988 2985 2983 2981 2978 2976 2973 2971 2968 2966 2964 2961 2959 2957 2955 2953 2951 2948 2946
2981 2982 2982 2983 2984 2985 2986 2987 2988 2989 2989 2991 2992 2993 2995 2996 2998 3000 3003 3005 3007 3009 3010 3012 3013 3014 3014 3015 3015 3016 3016 3016 3016 3016 3016 3016 3016 3016 3016 3016 3016 3016 3016 3016 3016 3015 3014 3014 3013 3012 3011 3010 3010 3009 3008 3007 3006 3005 3004 3002 3001 2999 2997 2995 2993 2990 2988 2986 2984 2982 2979 2977 2974 2972 2969 2967 2964 2962 2960 2958 2956 2954 2952 2950 2947 2945
2979 2980 2980 2981 2982 2983 2983 2984 2985 2986 2987 2988 2989 2991 2992 2994 2996 2998 3000 3003 3005 3008 3009 3011 3012 3013 3014 3014 3014 3014 3015 3015 3015 3015 3015 3015 3015 3015 3015 3015 3015 3015 3015 3014 3014 3013 3013 3012 3011 3010 3009 3009 3009 3008 3007 3006 3005 3004 3002 3001 2999 2997 2995 2993 2991 2989 2987 2984 2982 2980 2978 2975 2973 2970 2968 2966 2964 2962 2959 2958 2955 2953 2951 2949 2947 2944
2977 2978 2979 2979 2980 2980 2981 2981 2982 2983 2984 2985 2986 2988 2989 2991 2993 2996 2999 3002 3004 3006 3008 3009 3011 3012 3013 3013 3013 3013 3013 3014 3014 3014 3014 3014 3014 3014 3014 3014 3014 3013 3013 3013 3012 3011 3011 3010 3009 3009 3008 3008 3007 3006 3006 3004 3004 3002 3001 2999 2997 2995 2994 2992 2989 2988 2985 2983 2981 2979 2976 2974 2972 2969 2967 2965 2963 2961 2959 2957 2954 2952 2950 2948 2946 2944
2975 2976 2977 2978 2978 2978 2979 2979 2980 2981 2982 2983 2984 2985 2987 2989 2991 2994 2997 3000 3003 3005 3006 3008 3010 3011 3012 3012 3012 3012 3012 3012 3012 3012 3012 3012 3012 3013 3013 3012 3012 3012 3011 3011 3010 3009 3009 3008 3008 3007 3007 3007 3006 3005 3004 3003 3002 3001 2999 2997 2996 2994 2992 2990 2988 2986 2984 2982 2979 2977 2975 2973 2970 2968 2966 2964 2962 2960 2958 2956 2954 2952 2949 2947 2945 2943
2973 2974 2975 2975 2976 2976 2977 2978 2979 2979 2980 2981 2983 2984 2986 2988 2991 2994 2997 3000 3002 3003 3005 3007 3008 3009 3010 3010 3010 3010 3010 3010 3010 3011 3011 3011 3011 3011 3011 3011 3010 3010 3009 3009 3009 3008 3007 3007 3006 3006 3006 3005 3005 3004 3003 3002 3001 2999 2998 2996 2994 2992 2990 2989 2987 2984 2983 2980 2978 2976 2974 2971 2969 2967 2965 2963 2961 2959 2958 2955 2953 2951 2949 2947 2944 2942
2971 2972 2972 2973 2974 2974 2976 2977 2977 2978 2979 2981 2982 2984 2986 2989 2991 2994 2997 2999 3000 3001 3003 3004 3006 3008 3008 3008 3008 3008 3008 3009 3009 3009 3009 3009 3009 3009 3009 3009 3008 3008 3008 3008 3007 3006 3006 3005 3005 3005 3004 3004 3004 3003 3002 3000 2999 2998 2996 2994 2993 2991 2989 2987 2985 2983 2981 2979 2977 2975 2972 2970 2968 2966 2964 2963 2961 2959 2957 2955 2953 2950 2948 2946 2944 2941
2968 2969 2970 2971 2972 2973 2974 2974 2976 2977 2978 2980 2981 2984 2986 2989 2991 2993 2995 2997 2998 2999 3001 3003 3004 3005 3006 3006 3006 3006 3006 3006 3007 3007 3007 3007 3007 3007 3007 3007 3006 3006 3006 3006 3005 3005 3004 3004 3004 3004 3003 3003 3002 3001 3000 2999 2998 2996 2994 2993 2991 2989 2988 2986 2984 2982 2980 2978 2976 2974 2971 2969 2968 2966 2964 2962 2960 2959 2956 2954 2952 2950 2948 2945 2943 2941
2966 2967 2968 2969 2969 2970 2971 2973 2974 2975 2977 2979 2981 2983 2986 2988 2990 2992 2994 2995 2996 2998 3000 3001 3002 3003 3003 3003 3003 3004 3004 3004 3005 3005 3005 3005 3006 3005 3005 3005 3004 3004 3004 3004 3004 3003 3003 3003 3003 3003 3002 3002 3001 3000 2999 2998 2996 2994 2993 2992 2990 2988 2986 2984 2983 2981 2979 2977 2974 2973 2971 2969 2967 2965 2964 2962 2960 2958 2956 2954 2952 2949 2947 2945 2942 2940
2963 2964 2965 2966 2967 2969 2970 2971 2973 2974 2976 2979 2981 2983 2985 2987 2989 2990 2992 2993 2995 2996 2998 2999 2999 3000 3000 3001 3001 3002 3002 3002 3003 3003 3004 3004 3004 3004 3004 3003 3003 3003 3002 3002 3002 3002 3002 3002 3002 3001 3001 3000 2999 2999 2997 2996 2994 2993 2992 2990 2989 2987 2985 2983 2982 2979 2978 2975 2974 2972 2970 2968 2967 2965 2963 2961 2959 2957 2955 2953 2951 2949 2947 2944 2942 2940
2962 2962 2963 2964 2966 2967 2969 2970 2972 2974 2976 2978 2980 2982 2984 2985 2987 2988 2990 2991 2993 2994 2995 2996 2997 2998 2998 2999 2999 3000 3000 3001 3001 3001 3002 3002 3002 3002 3002 3002 3001 3001 3001 3000 3000 3001 3001 3001 3001 3000 3000 2999 2998 2997 2996 2994 2993 2992 2990 2989 2987 2986 2984 2982 2980 2979 2976 2974 2973 2971 2969 2968 2966 2964 2963 2961 2959 2957 2955 2953 2951 2949 2946 2944 2942 2939
2960 2961 2962 2964 2965 2967 2968 2970 2972 2974 2975 2977 2979 2980 2982 2984 2985 2987 2988 2990 2991 2992 2993 2994 2995 2996 2997 2997 2998 2998 2999 2999 2999 3000 3000 3000 3000 3001 3000 3000 3000 2999 2999 2999 2999 3000 3000 3000 3000 2999 2999 2998 2996 2995 2994 2993 2992 2991 2989 2988 2986 2984 2983 2981 2979 2977 2976 2974 2972 2971 2969 2968 2966 2964 2962 2960 2959 2957 2954 2953 2950 2948 2946 2944 2941 2939
2959 2961 2962 2963 2965 2966 2968 2970 2971 2973 2975 2976 2978 2979 2981 2982 2984 2985 2986 2988 2989 2990 2991 2992 2993 2994 2995 2996 2996 2997 2997 2998 2998 2998 2998 2999 2999 2999 2999 2998 2998 2998 2998 2998 2999 2999 2999 2999 2998 2998 2997 2996 2995 2994 2993 2992 2991 2989 2988 2987 2985 2984 2982 2980 2978 2977 2975 2973 2972 2970 2969 2967 2965 2964 2962 2960 2958 2956 2954 2952 2950 2948 2945 2944 2941 2939
2959 2960 2961 2963 2964 2966 2968 2969 2971 2972 2974 2975 2977 2978 2979 2981 2982 2983 2985 2986 2987 2989 2989 2990 2991 2992 2993 2994 2994 2995 2996 2996 2996 2996 2996 2997 2997 2997 2997 2997 2996 2996 2997 2997 2998 2998 2997 2997 2997 2996 2995 2995 2994 2993 2992 2991 2989 2988 2987 2985 2984 2982 2981 2979 2977 2976 2974 2973 2971 2970 2968 2967 2965 2963 2961 2960 2958 2956 2954 2952 2950 2948 2945 2943 2941 2939
2958 2959 2961 2963 2964 2966 2967 2969 2970 2971 2973 2974 2975 2977 2978 2979 2981 2982 2984 2985 2986 2987 2988 2989 2989 2990 2991 2992 2993 2994 2994 2995 2994 2994 2994 2995 2995 2995 2995 2995 2995 2995 2996 2996 2996 2996 2996 2996 2995 2995 2994 2994 2993 2992 2991 2990 2989 2987 2986 2984 2983 2981 2980 2978 2977 2975 2974 2972 2971 2969 2968 2966 2964 2963 2961 2959 2957 2956 2954 2952 2950 2948 2945 2944 2942 2939
2957 2959 2960 2962 2963 2965 2966 2967 2969 2970 2971 2973 2974 2975 2976 2978 2979 2981 2982 2983 2984 2985 2986 2986 2987 2988 2989 2991 2992 2992 2993 2993 2992 2992 2992 2993 2993 2993 2994 2994 2994 2994 2995 2995 2995 2995 2995 2994 2994 2994 2993 2992 2992 2991 2990 2989 2988 2986 2985 2983 2982 2980 2979 2978 2976 2974 2973 2972 2970 2969 2968 2966 2964 2962 2961 2959 2957 2955 2954 2952 2950 2948 2946 2944 2942 2940
2956 2957 2959 2960 2962 2963 2964 2966 2967 2968 2969 2971 2972 2973 2975 2976 2978 2979 2979 2981 2982 2983 2984 2984 2986 2987 2988 2989 2990 2990 2991 2991 2991 2991 2991 2991 2991 2992 2992 2993 2993 2994 2994 2994 2994 2994 2994 2994 2993 2993 2992 2992 2991 2990 2989 2988 2987 2985 2984 2982 2981 2979 2978 2977 2975 2974 2973 2972 2970 2969 2967 2966 2964 2962 2960 2959 2957 2955 2954 2952 2950 2948 2946 2944 2942 2940
2954 2956 2957 2959 2960 2961 2962 2964 2965 2966 2967 2969 2970 2971 2973 2974 2975 2976 2977 2978 2979 2981 2982 2983 2984 2985 2987 2987 2988 2989 2989 2989 2989 2989 2989 2990 2990 2990 2991 2992 2992 2993 2993 2993 2993 2993 2993 2993 2992 2992 2991 2990 2990 2989 2988 2987 2985 2984 2983 2981 2980 2979 2977 2976 2975 2974 2973 2971 2970 2969 2967 2965 2964 2962 2960 2959 2957 2955 2954 2952 2950 2948 2947 2945 2943 2941
2953 2954 2955 2957 2958 2959 2960 2961 2963 2964 2965 2967 2968 2969 2971 2972 2973 2974 2975 2976 2978 2979 2980 2982 2983 2984 2985 2985 2986 2987 2987 2987 2988 2988 2988 2988 2989 2989 2990 2991 2991 2992 2992 2992 2992 2992 2992 2992 2991 2991 2990 2989 2989 2988 2987 2986 2984 2983 2982 2980 2979 2978 2977 2976 2975 2974 2972 2971 2969 2968 2967 2965 2963 2962 2960 2959 2957 2955 2954 2952 2950 2949 2947 2945 2943 2941
2951 2952 2954 2955 2956 2957 2958 2959 2961 2962 2963 2964 2966 2967 2969 2970 2971 2973 2974 2975 2976 2977 2979 2980 2981 2982 2983 2984 2984 2985 2985 2986 2986 2986 2986 2987 2987 2988 2989 2990 2991 2991 2991 2991 2991 2991 2991 2991 2990 2990 2989 2989 2988 2987 2986 2985 2984 2982 2981 2980 2979 2978 2976 2975 2974 2973 2972 2971 2969 2968 2966 2965 2963 2962 2960 2959 2957 2955 2954 2952 2950 2949 2947 2945 2944 2942
2949 2951 2952 2953 2954 2955 2957 2958 2959 2960 2961 2962 2964 2965 2967 2968 2970 2971 2972 2973 2974 2976 2977 2978 2979 2980 2981 2982 2982 2983 2984 2984 2984 2984 2985 2985 2986 2987 2988 2989 2990 2990 2990 2990 2990 2990 2990 2990 2989 2989 2989 2988 2987 2986 2985 2984 2983 2981 2980 2979 2978 2977 2976 2975 2974 2973 2972 2970 2969 2968 2966 2964 2963 2962 2960 2959 2957 2955 2954 2952 2950 2949 2947 2945 2944 2942
2948 2949 2951 2952 2953 2954 2955 2956 2957 2958 2959 2961 2963 2964 2966 2967 2968 2969 2970 2971 2973 2974 2976 2977 2978 2979 2979 2980 2981 2981 2982 2982 2983 2983 2984 2984 2985 2986 2988 2988 2989 2989 2989 2989 2989 2989 2989 2989 2989 2988 2988 2987 2986 2985 2984 2983 2982 2981 2980 2979 2978 2977 2976 2975 2974 2973 2972 2970 2969 2968 2966 2964 2963 2961 2960 2959 2957 2955 2954 2952 2950 2949 2947 2945 2944 2943
2947 2948 2949 2950 2951 2953 2954 2955 2956 2957 2959 2960 2962 2963 2964 2965 2966 2967 2968 2969 2971 2973 2974 2975 2977 2977 2978 2979 2979 2980 2980 2981 2981 2982 2982 2983 2984 2985 2987 2987 2988 2988 2988 2988 2988 2988 2988 2988 2988 2987 2987 2986 2985 2984 2983 2982 2981 2980 2979 2978 2978 2977 2976 2975 2974 2973 2971 2970 2969 2967 2966 2964 2963 2961 2960 2959 2957 2955 2954 2952 2950 2949 2947 2946 2945 2944
2946 2947 2948 2949 2950 2952 2953 2954 2955 2957 2958 2959 2960 2961 2962 2963 2964 2965 2967 2968 2969 2971 2973 2974 2975 2976 2976 2977 2978 2978 2979 2979 2980 2980 2981 2982 2983 2984 2985 2986 2987 2987 2987 2987 2987 2987 2987 2987 2987 2987 2986 2985 2984 2984 2982 2981 2980 2979 2979 2978 2977 2976 2975 2974 2974 2972 2971 2970 2969 2967 2966 2964 2963 2962 2960 2959 2957 2956 2954 2953 2951 2949 2948 2947 2946 2945
2945 2946 2947 2948 2950 2951 2953 2954 2955 2956 2957 2958 2958 2959 2960 2961 2962 2964 2965 2967 2968 2970 2971 2972 2973 2974 2975 2975 2976 2976 2977 2978 2978 2979 2980 2981 2983 2984 2984 2985 2986 2986 2986 2986 2986 2986 2986 2986 2986 2986 2985 2984 2984 2983 2982 2981 2980 2979 2978 2978 2977 2976 2975 2974 2974 2972 2971 2970 2969 2967 2966 2964 2963 2962 2960 2959 2958 2956 2954 2953 2951 2950 2949 2948 2948 2947
2944 2945 2946 2947 2949 2950 2952 2953 2954 2954 2955 2955 2956 2957 2958 2959 2961 2962 2964 2965 2967 2968 2969 2971 2972 2972 2973 2973 2974 2975 2975 2976 2977 2978 2979 2980 2982 2983 2984 2984 2984 2985 2985 2985 2985 2985 2985 2985 2985 2985 2984 2984 2983 2982 2981 2980 2979 2979 2978 2977 2977 2976 2975 2974 2973 2972 2971 2969 2968 2967 2966 2964 2963 2962 2961 2959 2958 2956 2954 2953 2952 2951 2950 2949 2949 2948
2942 2943 2944 2946 2947 2949 2950 2951 2952 2952 2953 2953 2954 2955 2956 2958 2959 2961 2962 2964 2965 2967 2968 2969 2969 2970 2971 2971 2972 2973 2974 2975 2976 2977 2978 2980 2981 2982 2983 2983 2984 2984 2984 2984 2984 2984 2985 2985 2984 2984 2983 2983 2982 2981 2980 2979 2979 2978 2978 2977 2976 2976 2975 2974 2973 2972 2971 2969 2968 2967 2966 2964 2963 2962 2961 2959 2958 2956 2955 2954 2953 2952 2951 2951 2950 2949
2940 2941 2943 2944 2946 2947 2949 2950 2950 2950 2951 2951 2952 2953 2955 2956 2958 2959 2961 2962 2964 2965 2966 2966 2967 2968 2969 2970 2971 2972 2973 2974 2975 2976 2978 2979 2980 2981 2982 2982 2983 2983 2984 2984 2984 2984 2984 2984 2984 2983 2983 2982 2981 2980 2980 2979 2979 2978 2977 2977 2976 2976 2975 2974 2973 2972 2971 2969 2968 2967 2966 2964 2964 2962 2961 2959 2958 2956 2955 2954 2953 2953 2952 2952 2951 2950
2939 2940 2941 2943 2944 2946 2947 2948 2949 2949 2949 2950 2951 2952 2954 2955 2957 2958 2959 2961 2962 2963 2964 2964 2965 2966 2967 2968 2969 2971 2972 2973 2974 2975 2977 2978 2979 2980 2981 2981 2982 2982 2983 2983 2983 2983 2983 2983 2983 2982 2982 2981 2980 2979 2979 2979 2978 2978 2977 2977 2976 2976 2975 2974 2973 2972 2971 2969 2968 2967 2966 2965 2964 2962 2961 2959 2958 2957 2956 2955 2954 2954 2954 2953 2952 2952
2938 2939 2939 2941 2943 2944 2946 2947 2948 2948 2948 2949 2950 2951 2953 2954 2955 2957 2958 2959 2960 2961 2962 2963 2964 2964 2966 2967 2968 2969 2971 2972 2974 2975 2976 2977 2978 2979 2980 2981 2981 2981 2982 2982 2982 2983 2983 2982 2982 2981 2981 2980 2979 2979 2979 2978 2978 2977 2977 2977 2976 2976 2975 2974 2973 2972 2971 2969 2968 2967 2966 2965 2964 2962 2960 2959 2958 2957 2957 2956 2956 2955 2955 2954 2954 2953
2937 2938 2938 2939 2941 2943 2944 2945 2946 2947 2947 2948 2949 2950 2952 2953 2954 2955 2956 2957 2958 2959 2960 2961 2962 2963 2964 2966 2967 2969 2970 2971 2973 2974 2975 2977 2978 2979 2979 2980 2980 2980 2981 2981 2981 2982 2982 2981 2981 2981 2980 2979 2979 2979 2978 2978 2978 2977 2977 2977 2976 2976 2975 2974 2973 2972 2971 2970 2969 2967 2966 2965 2963 2962 2960 2959 2959 2958 2958 2957 2957 2957 2956 2955 2955 2954
2936 2937 2937 2938 2939 2941 2943 2944 2944 2945 2946 2947 2948 2949 2950 2951 2953 2954 2954 2956 2957 2958 2959 2959 2961 2962 2963 2965 2966 2968 2969 2971 2972 2974 2975 2976 2977 2978 2979 2979 2979 2980 2980 2980 2981 2981 2981 2980 2980 2980 2979 2979 2979 2978 2978 2978 2977 2977 2977 2977 2976 2976 2975 2974 2973 2972 2971 2970 2969 2967 2966 2965 2963 2962 2961 2960 2959 2959 2959 2958 2958 2958 2957 2957 2956 2955
2934 2935 2935 2936 2938 2939 2941 2942 2943 2944 2945 2946 2947 2948 2949 2950 2951 2952 2953 2954 2955 2956 2957 2958 2959 2961 2962 2964 2965 2967 2968 2969 2971 2973 2974 2975 2976 2977 2978 2978 2979 2979 2979 2980 2980 2980 2980 2980 2979 2979 2979 2979 2978 2978 2978 2977 2977 2977 2977 2977 2976 2975 2975 2974 2973 2972 2971 2970 2969 2967 2966 2965 2963 2962 2961 2960 2960 2959 2959 2959 2959 2959 2958 2958 2957 2956
2932 2933 2934 2935 2936 2938 2939 2940 2941 2943 2944 2945 2946 2947 2948 2949 2949 2951 2952 2953 2954 2955 2956 2957 2959 2960 2962 2963 2964 2966 2968 2969 2970 2972 2973 2974 2975 2976 2977 2977 2978 2979 2979 2979 2979 2979 2979 2979 2979 2978 2978 2978 2978 2978 2977 2977 2977 2977 2977 2977 2976 2975 2974 2974 2973 2972 2971 2970 2969 2967 2966 2965 2964 2963 2962 2961 2961 2961 2960 2960 2960 2960 2959 2959 2958 2957
2929 2930 2932 2933 2934 2936 2937 2938 2940 2941 2942 2944 2944 2945 2946 2947 2948 2949 2950 2952 2953 2954 2955 2956 2958 2959 2961 2963 2964 2966 2967 2969 2970 2971 2973 2974 2974 2975 2976 2977 2977 2978 2978 2978 2979 2979 2978 2978 2978 2978 2978 2977 2977 2977 2977 2977 2977 2977 2977 2977 2976 2975 2975 2974 2973 2972 2971 2970 2969 2967 2966 2965 2964 2963 2963 2962 2962 2962 2962 2961 2961 2961 2960 2960 2959 2959